User: anonymous   Login
Location: Churchill Northern Studies Centre
(58.7378°N, 93.8201°W)
Time: 22:12:44
(UTC-06:00)
Language:

Vanguard 2 Rocket - Orbit

View from above orbital plane
View from above orbital plane
View from above satellite
View from above satellite

Ground track
Ground track

The orbit data is extracted from the following two-line orbital elements,

1    12U 59001B   17344.35470002 +.00000157 +00000-0 +73869-4 0  9998
2    12 032.9131 329.8616 1665344 278.9469 062.6990 11.44148857417134
Epoch (UTC): 10 December 2017 08:30:46
Eccentricity: 0.1665344
inclination: 32.9131°
perigee height: 555 km
apogee height: 3326 km
right ascension of ascending node: 329.8616°
argument of perigee: 278.9469°
revolutions per day: 11.44148857
mean anomaly at epoch: 62.6990°
orbit number at epoch: 41713

The dashed part of the orbit path shows where the satellite is in the earth's shadow,  

DLR